Bettles, AK

1:15 PM AKST on November 12, 2019 (GMT -0900)
Bettles

Weather History for PABT - May, 2019

Change the Weather History Date:

Thursday, May 30, 2019

  Actual Average Record
Temperature  
Mean Temperature 62 °F -  
Max Temperature 73 °F 63 °F 81 °F (1983)
Min Temperature 50 °F 41 °F 30 °F (2000)
Degree Days  
Heating Degree Days 4    
Growing Degree Days 12 (Base 50)    
Moisture  
Dew Point 40 °F    
Average Humidity 45    
Maximum Humidity 66    
Minimum Humidity 21    
Precipitation  
Precipitation 0.02 in - - ()
Sea Level Pressure  
Sea Level Pressure 29.94 in    
Wind  
Wind Speed 6 mph (NNE)    
Max Wind Speed 10 mph    
Max Gust Speed -    
Visibility 10 miles    
Events      
Averages and records for this station are not official NWS values.
T = Trace of Precipitation, MM = Missing Value Source: NWS Daily Summary

Daily Weather History Graph

Daily Weather History Graph

Search for Another Location

Airport or City:

Astronomy

May. 30, 2019 Rise Set
Actual Time 2:53 AM AKDT 1:21 AM AKDT
Civil Twilight Sun does not rise Sun does not rise
Nautical Twilight Sun does not rise Sun does not rise
Astronomical Twilight Sun does not rise Sun does not rise
Moon 4:28 AM AKDT (5/30) 6:25 PM AKDT (5/30)
Length of Visible Light 24h 00m
Length of Day
22h 28m
Waning Crescent, 14% of the Moon is Illuminated
May 30
Waning Crescent
Jun 3
New
Jun 9
First Quarter
Jun 17
Full
Jun 25
Last Quarter

Hourly Weather History & Observations

Time (AKDT) Temp. Dew Point Humidity Pressure Visibility Wind Dir Wind Speed Gust Speed Precip Events Conditions
12:53 AM 55.0 °F 39.0 °F 55% 29.97 in 10.0 mi NNE 6.9 mph - N/A   Mostly Cloudy
1:53 AM 54.0 °F 37.9 °F 55% 29.98 in 10.0 mi Calm Calm - N/A   Mostly Cloudy
2:53 AM 52.0 °F 39.0 °F 61% 30.01 in 10.0 mi WNW 5.8 mph - N/A   Mostly Cloudy
3:53 AM 52.0 °F 39.0 °F 61% 30.01 in 10.0 mi NNE 8.1 mph - N/A   Mostly Cloudy
4:53 AM 51.1 °F 39.0 °F 63% 30.01 in 10.0 mi NNE 6.9 mph - N/A   Mostly Cloudy
5:53 AM 51.1 °F 39.9 °F 66% 30.02 in 10.0 mi NNE 5.8 mph - N/A   Mostly Cloudy
6:53 AM 53.1 °F 41.0 °F 64% 30.02 in 10.0 mi North 3.5 mph - N/A   Scattered Clouds
7:53 AM 57.0 °F 41.0 °F 55% 30.02 in 10.0 mi NNE 8.1 mph - N/A   Scattered Clouds
8:53 AM 61.0 °F 42.1 °F 50% 30.01 in 10.0 mi NNE 6.9 mph - N/A   Scattered Clouds
9:53 AM 63.0 °F 42.1 °F 46% 30.01 in 10.0 mi North 4.6 mph - N/A   Partly Cloudy
10:53 AM 64.9 °F 41.0 °F 42% 30.00 in 10.0 mi Variable 4.6 mph - N/A   Partly Cloudy
12:53 PM 64.0 °F 41.0 °F 43% 29.97 in 10.0 mi Calm Calm - 0.00 in   Mostly Cloudy
1:53 PM 66.0 °F 44.1 °F 45% 29.95 in 10.0 mi NNE 10.4 mph - 0.00 in   Mostly Cloudy
2:53 PM 70.0 °F 37.9 °F 31% 29.93 in 10.0 mi Variable 6.9 mph - N/A   Mostly Cloudy
3:53 PM 71.1 °F 39.9 °F 32% 29.91 in 10.0 mi North 6.9 mph - N/A   Mostly Cloudy
4:53 PM 68.0 °F 37.9 °F 33% 29.89 in 10.0 mi NE 5.8 mph - N/A   Scattered Clouds
5:53 PM 66.9 °F 37.9 °F 34% 29.87 in 10.0 mi NNE 8.1 mph - N/A   Mostly Cloudy
6:53 PM 61.0 °F 44.1 °F 54% 29.87 in 10.0 mi NNE 5.8 mph - 0.02 in   Mostly Cloudy
7:53 PM 66.9 °F 42.1 °F 40% 29.85 in 10.0 mi NE 8.1 mph - N/A   Scattered Clouds
8:53 PM 64.0 °F 41.0 °F 43% 29.84 in 10.0 mi NNE 5.8 mph - N/A   Scattered Clouds
9:53 PM 66.0 °F 36.0 °F 33% 29.84 in 10.0 mi Variable 5.8 mph - N/A   Scattered Clouds
10:53 PM 59.0 °F 36.0 °F 42% 29.84 in 10.0 mi ESE 6.9 mph - N/A   Scattered Clouds
11:53 PM 59.0 °F 36.0 °F 42% 29.84 in 10.0 mi ESE 6.9 mph - N/A   Scattered Clouds